Sarasota, FL

6:00 AM EST on December 13, 2019 (GMT -0500)
Sarasota-bradenton

Weather History for KSRQ - October, 2019

Change the Weather History Date:

Thursday, October 24, 2019

  Actual Average Record
Temperature  
Mean Temperature 83 °F 74 °F  
Max Temperature 93 °F 84 °F 91 °F (1919)
Min Temperature 73 °F 65 °F 45 °F (1923)
Degree Days  
Heating Degree Days 0 0  
Month to date heating degree days 0 0  
Since 1 July heating degree days 0 0  
Cooling Degree Days 18 10  
Month to date cooling degree days 425 295  
Year to date cooling degree days 3882 3084  
Growing Degree Days 33 (Base 50)    
Moisture  
Dew Point 71 °F    
Average Humidity 69    
Maximum Humidity 87    
Minimum Humidity 44    
Precipitation  
Precipitation 0.00 in 0.08 in 2.61 in (2005)
Month to date precipitation 3.22 2.58  
Year to date precipitation 46.60 48.01  
Sea Level Pressure  
Sea Level Pressure 30.03 in    
Wind  
Wind Speed 9 mph ()    
Max Wind Speed 18 mph    
Max Gust Speed 24 mph    
Visibility 10.0 miles    
Events      
T = Trace of Precipitation, MM = Missing Value Source: Averaged Metar Reports

Daily Weather History Graph

Daily Weather History Graph

Search for Another Location

Airport or City:

Astronomy

Oct. 24, 2019 Rise Set
Actual Time 7:35 AM EDT 6:53 PM EDT
Civil Twilight 7:11 AM EDT 7:16 PM EDT
Nautical Twilight 6:44 AM EDT 7:44 PM EDT
Astronomical Twilight 6:16 AM EDT 8:11 PM EDT
Moon 3:36 AM EDT (10/24) 4:51 PM EDT (10/24)
Length of Visible Light 12h 05m
Length of Day
11h 17m
Waning Crescent, 17% of the Moon is Illuminated
Oct 24
Waning Crescent
Oct 27
New
Nov 4
First Quarter
Nov 12
Full
Nov 19
Last Quarter

Hourly Weather History & Observations

Time (EDT) Temp. Heat Index Dew Point Humidity Pressure Visibility Wind Dir Wind Speed Gust Speed Precip Events Conditions
12:53 AM 75.0 °F - 66.0 °F 73% 30.05 in 10.0 mi ENE 10.4 mph - N/A   Mostly Cloudy
1:53 AM 75.0 °F - 66.9 °F 76% 30.04 in 10.0 mi East 10.4 mph - N/A   Scattered Clouds
2:53 AM 75.0 °F - 66.9 °F 76% 30.03 in 10.0 mi ENE 9.2 mph - N/A   Overcast
3:53 AM 75.0 °F - 68.0 °F 79% 30.02 in 10.0 mi East 8.1 mph - N/A   Scattered Clouds
4:53 AM 73.9 °F - 68.0 °F 82% 30.01 in 10.0 mi ENE 8.1 mph - N/A   Clear
5:53 AM 73.0 °F - 68.0 °F 84% 30.02 in 10.0 mi ENE 8.1 mph - N/A   Clear
6:53 AM 73.9 °F - 69.1 °F 85% 30.03 in 10.0 mi ENE 8.1 mph - N/A   Clear
7:53 AM 73.9 °F - 70.0 °F 87% 30.04 in 10.0 mi ENE 8.1 mph - N/A   Clear
8:53 AM 77.0 °F - 72.0 °F 84% 30.05 in 10.0 mi ENE 9.2 mph - N/A   Clear
9:53 AM 82.0 °F 87.9 °F 73.9 °F 76% 30.06 in 10.0 mi East 9.2 mph - N/A   Clear
10:53 AM 86.0 °F 95.1 °F 75.0 °F 70% 30.06 in 10.0 mi East 13.8 mph - N/A   Partly Cloudy
11:20 AM 88.0 °F 97.5 °F 75.0 °F 65% 30.06 in 10.0 mi ESE 12.7 mph 20.7 mph N/A   Mostly Cloudy
11:53 AM 89.1 °F 98.0 °F 73.9 °F 61% 30.06 in 10.0 mi ESE 11.5 mph - N/A   Mostly Cloudy
12:53 PM 89.1 °F 97.0 °F 73.0 °F 59% 30.04 in 10.0 mi East 11.5 mph - N/A   Mostly Cloudy
1:00 PM 88.0 °F 95.6 °F 73.0 °F 61% 30.04 in 10.0 mi East 9.2 mph - N/A   Mostly Cloudy
1:53 PM 91.9 °F 100.7 °F 73.0 °F 54% 30.01 in 10.0 mi ESE 13.8 mph 18.4 mph N/A   Partly Cloudy
2:53 PM 91.0 °F 97.6 °F 71.1 °F 52% 29.99 in 10.0 mi ESE 10.4 mph 17.3 mph N/A   Partly Cloudy
3:53 PM 93.0 °F 97.4 °F 68.0 °F 44% 29.98 in 10.0 mi SE 15.0 mph - N/A   Partly Cloudy
4:53 PM 91.9 °F 96.9 °F 69.1 °F 47% 29.97 in 10.0 mi East 12.7 mph - N/A   Clear
5:53 PM 90.0 °F 95.4 °F 70.0 °F 52% 29.98 in 10.0 mi East 11.5 mph - N/A   Clear
6:53 PM 87.1 °F 92.0 °F 70.0 °F 57% 29.99 in 10.0 mi East 6.9 mph - N/A   Clear
7:53 PM 84.0 °F 89.0 °F 71.1 °F 65% 30.01 in 10.0 mi East 4.6 mph - N/A   Clear
8:53 PM 84.0 °F 89.0 °F 71.1 °F 65% 30.04 in 10.0 mi ESE 15.0 mph - N/A   Clear
9:53 PM 82.0 °F 86.7 °F 72.0 °F 71% 30.05 in 10.0 mi ESE 10.4 mph - N/A   Clear
10:53 PM 81.0 °F 85.8 °F 73.0 °F 77% 30.06 in 10.0 mi East 8.1 mph - N/A   Clear
11:53 PM 80.1 °F 84.5 °F 73.9 °F 81% 30.06 in 10.0 mi East 9.2 mph - N/A   Clear